Location: Chircca
(13.7944°S, 72.0608°W)
Time: 06:04:10
(UTC+00:00)

Centaur AC-146 - Pass Details

Date: 14 July 2020
Orbit: 302 x 37665 km, 19.1° (Epoch: 13 August)

Event Time Altitude Azimuth Distance (km) Brightness Sun altitude
Exits shadow 08:58:37 44° 67° (ENE) 978 3.3 -31.6°
Drops below altitude 10° 09:05:07 10° 73° (ENE) 4,241 7.2 -30.1°
Sets 09:13:23 0° 74° (ENE) 8,007 9.0 -28.2°
